Location: Maddington
(51.2000°N, 1.9167°W)
Time: 15:18:25
(UTC+00:00)

Cosmos 1125 Rocket - Pass Details

Date: 26 June 2021
Orbit: 757 x 780 km, 74.0° (Epoch: 28 July)

Event Time Altitude Azimuth Distance (km) Brightness Sun altitude
Rises 00:44:51 0° 337° (NNW) 3,249 7.8 -15.1°
Reaches altitude 10° 00:47:16 10° 341° (NNW) 2,322 7.0 -15.0°
Maximum altitude 00:52:29 58° 61° (ENE) 904 4.1 -14.9°
Drops below altitude 10° 00:57:41 10° 140° (SE) 2,322 5.6 -14.7°
Enters shadow 00:58:04 - 141° (SE) 2,466 5.8 -14.7°
